FW6253 Weather Reports


Display with metric or nautical units.
time (UTC)temp
F
wind
direction
speed
MPH
gust
MPH
rain 1hr
in
rain 24hr
in
rain mn
in
humidity
%
barometer
mb
20260901185552 96 128 1.0 9.0 0.00 0.00 0.00 46 1014.2
20260901185052 96 79 4.0 9.0 0.00 0.00 0.00 47 1014.4
20260901184606 96 155 1.0 6.0 0.00 0.00 0.00 48 1014.5
20260901184052 96 0 2.0 7.0 0.00 0.00 0.00 47 1014.6
20260901183553 96 117 2.0 7.0 0.00 0.00 0.00 46 1014.6
20260901183103 96 102 2.0 7.0 0.00 0.00 0.00 47 1014.7
20260901182555 95 113 1.0 7.0 0.00 0.00 0.00 50 1014.9
20260901182052 95 272 3.0 9.0 0.00 0.00 0.00 47 1014.9
20260901181605 95 127 2.0 9.0 0.00 0.00 0.00 46 1015.0
20260901181053 94 94 1.0 8.0 0.00 0.00 0.00 49 1015.2
20260901180552 93 0 0.0 10.0 0.00 0.00 0.00 50 1015.2
20260901180105 93 119 1.0 10.0 0.00 0.00 0.00 49 1015.2
20260901175553 93 234 3.0 8.0 0.00 0.00 0.00 51 1015.3
20260901175053 93 185 2.0 7.0 0.00 0.00 0.00 50 1015.4
20260901174603 93 198 3.0 7.0 0.00 0.00 0.00 50 1015.5
20260901174055 93 148 2.0 8.0 0.00 0.00 0.00 53 1015.5
20260901173553 93 0 2.0 8.0 0.00 0.00 0.00 52 1015.5
20260901173103 92 169 2.0 6.0 0.00 0.00 0.00 53 1015.6
20260901172552 92 92 1.0 8.0 0.00 0.00 0.00 51 1015.6
20260901172052 92 195 4.0 8.0 0.00 0.00 0.00 52 1015.7
20260901171558 92 184 2.0 7.0 0.00 0.00 0.00 52 1015.8
20260901171053 92 0 2.0 9.0 0.00 0.00 0.00 52 1015.8
20260901170553 92 173 3.0 9.0 0.00 0.00 0.00 54 1015.9
20260901170108 91 0 1.0 7.0 0.00 0.00 0.00 54 1015.9
20260901165552 91 160 3.0 7.0 0.00 0.00 0.00 54 1016.0
20260901165052 91 199 1.0 6.0 0.00 0.00 0.00 54 1016.0
20260901164628 91 123 2.0 6.0 0.00 0.00 0.00 56 1016.0
20260901164055 91 0 1.0 7.0 0.00 0.00 0.00 54 1016.1
20260901163552 90 0 0.0 7.0 0.00 0.00 0.00 55 1016.0
20260901163101 90 146 1.0 7.0 0.00 0.00 0.00 57 1016.1
20260901162551 89 0 2.0 7.0 0.00 0.00 0.00 57 1016.1
20260901162052 89 135 1.0 7.0 0.00 0.00 0.00 59 1016.1
20260901161557 88 116 2.0 7.0 0.00 0.00 0.00 61 1016.2
20260901161056 88 0 1.0 4.0 0.00 0.00 0.00 64 1016.2
20260901160551 88 132 1.0 5.0 0.00 0.00 0.00 65 1016.2
20260901160106 87 0 1.0 5.0 0.00 0.00 0.00 66 1016.3
20260901155551 87 135 0.0 6.0 0.00 0.00 0.00 66 1016.3
20260901155053 87 143 2.0 6.0 0.00 0.00 0.00 66 1016.4
20260901154604 86 109 1.0 5.0 0.00 0.00 0.00 68 1016.2
20260901154052 86 114 2.0 6.0 0.00 0.00 0.00 68 1016.2
20260901153552 86 181 1.0 6.0 0.00 0.00 0.00 70 1016.3
20260901153104 85 184 0.0 5.0 0.00 0.00 0.00 71 1016.1
20260901152553 85 0 0.0 6.0 0.00 0.00 0.00 71 1016.3
20260901152051 85 184 1.0 9.0 0.00 0.00 0.00 72 1016.4
20260901151615 84 218 2.0 9.0 0.00 0.00 0.00 73 1016.3
20260901151055 84 104 0.0 4.0 0.00 0.00 0.00 75 1016.3
20260901150553 84 105 0.0 4.0 0.00 0.00 0.00 76 1016.3
20260901145553 83 0 0.0 7.0 0.00 0.00 0.00 78 1016.4
20260901145052 83 0 0.0 7.0 0.00 0.00 0.00 79 1016.3
20260901144607 82 0 0.0 5.0 0.00 0.00 0.00 80 1016.3
20260901144051 82 149 1.0 5.0 0.00 0.00 0.00 82 1016.3
20260901143552 81 196 0.0 2.0 0.00 0.00 0.00 82 1016.3
20260901143105 81 0 0.0 5.0 0.00 0.00 0.00 83 1016.3
20260901142551 80 0 1.0 5.0 0.00 0.00 0.00 83 1016.4
20260901142052 80 198 3.0 6.0 0.00 0.00 0.00 84 1016.2
20260901141606 80 189 1.0 7.0 0.00 0.00 0.00 85 1016.1
20260901141052 80 190 3.0 8.0 0.00 0.00 0.00 86 1016.3
20260901140553 79 196 3.0 8.0 0.00 0.00 0.00 86 1016.2
20260901140106 79 209 2.0 7.0 0.00 0.00 0.00 87 1016.3
20260901135552 79 210 1.0 5.0 0.00 0.00 0.00 88 1016.3
20260901135052 79 195 3.0 5.0 0.00 0.00 0.00 88 1016.2
20260901134615 78 227 2.0 5.0 0.00 0.00 0.00 89 1016.1
20260901134049 78 229 1.0 5.0 0.00 0.00 0.00 90 1016.1
20260901133549 78 207 2.0 5.0 0.00 0.00 0.00 90 1016.1
20260901133057 78 223 1.0 4.0 0.00 0.00 0.00 90 1016.1
20260901132549 77 225 0.0 4.0 0.00 0.00 0.00 90 1016.0
20260901132051 77 246 0.0 4.0 0.00 0.00 0.00 90 1016.0
20260901131603 77 246 1.0 4.0 0.00 0.00 0.00 90 1016.0
20260901131049 77 246 1.0 3.0 0.00 0.00 0.00 90 1015.9
20260901130549 77 0 0.0 0.0 0.00 0.00 0.00 90 1015.9
20260901130058 77 0 0.0 1.0 0.00 0.00 0.00 90 1015.8
20260901125552 77 0 0.0 1.0 0.00 0.00 0.00 90 1015.6
20260901125054 77 0 0.0 2.0 0.00 0.00 0.00 90 1015.5
20260901124555 77 0 0.0 2.0 0.00 0.00 0.00 90 1015.6
20260901124054 77 0 0.0 3.0 0.00 0.00 0.00 90 1015.5
20260901123550 77 0 0.0 4.0 0.00 0.00 0.00 90 1015.4
20260901123058 77 167 1.0 4.0 0.00 0.00 0.00 90 1015.4
20260901122550 77 167 0.0 4.0 0.00 0.00 0.00 90 1015.5
20260901122049 77 167 1.0 4.0 0.00 0.00 0.00 90 1015.4
20260901121601 77 167 1.0 3.0 0.00 0.00 0.00 90 1015.3
20260901121049 77 167 0.0 4.0 0.00 0.00 0.00 90 1015.3
20260901120554 77 0 0.0 4.0 0.00 0.00 0.00 90 1015.3
20260901120104 77 0 1.0 5.0 0.00 0.00 0.00 90 1015.3
20260901115550 77 167 2.0 5.0 0.00 0.00 0.00 90 1015.2
20260901115050 77 167 3.0 6.0 0.00 0.00 0.00 90 1015.2
20260901114608 77 166 2.0 6.0 0.00 0.00 0.00 90 1015.3
20260901114050 77 164 2.0 6.0 0.00 0.00 0.00 90 1015.2
20260901113549 77 163 1.0 4.0 0.00 0.00 0.00 90 1015.3
20260901113104 77 163 0.0 5.0 0.00 0.00 0.00 89 1015.3
20260901112550 78 163 1.0 5.0 0.00 0.00 0.00 89 1015.4
20260901112050 78 162 2.0 5.0 0.00 0.00 0.00 89 1015.3
20260901111603 78 161 1.0 5.0 0.00 0.00 0.00 89 1015.3
20260901111049 78 161 1.0 4.0 0.00 0.00 0.00 89 1015.3
20260901110550 78 0 0.0 4.0 0.00 0.00 0.00 89 1015.4
20260901110106 78 161 0.0 4.0 0.00 0.00 0.00 89 1015.3
20260901105550 78 0 0.0 2.0 0.00 0.00 0.00 89 1015.5
20260901105049 78 0 0.0 2.0 0.00 0.00 0.00 89 1015.5
20260901104555 78 0 0.0 0.0 0.00 0.00 0.00 89 1015.4
20260901104050 78 0 0.0 0.0 0.00 0.00 0.00 89 1015.5
20260901103552 78 0 0.0 0.0 0.00 0.00 0.00 89 1015.5
20260901103106 78 0 0.0 0.0 0.00 0.00 0.00 89 1015.7
20260901102552 78 0 0.0 2.0 0.00 0.00 0.00 89 1015.4
20260901102052 78 0 0.0 4.0 0.00 0.00 0.00 89 1015.5
20260901101609 78 161 1.0 4.0 0.00 0.00 0.00 88 1015.4
20260901101052 78 161 0.0 2.0 0.00 0.00 0.00 88 1015.3
20260901100552 78 0 0.0 4.0 0.00 0.00 0.00 88 1015.3
20260901100108 78 0 1.0 4.0 0.00 0.00 0.00 88 1015.2
20260901095552 78 0 0.0 4.0 0.00 0.00 0.00 88 1015.2
20260901095051 78 161 1.0 5.0 0.00 0.00 0.00 88 1015.2
20260901094602 78 161 1.0 5.0 0.00 0.00 0.00 88 1015.2
20260901094055 78 161 1.0 4.0 0.00 0.00 0.00 88 1015.2
20260901093551 78 161 1.0 4.0 0.00 0.00 0.00 87 1015.2
20260901093102 78 161 0.0 4.0 0.00 0.00 0.00 87 1015.4
20260901092552 78 161 1.0 4.0 0.00 0.00 0.00 87 1015.4
20260901092055 78 0 0.0 4.0 0.00 0.00 0.00 87 1015.4
20260901091558 78 161 0.0 7.0 0.00 0.00 0.00 87 1015.4
20260901091053 78 161 2.0 7.0 0.00 0.00 0.00 87 1015.4
20260901090551 78 149 1.0 5.0 0.00 0.00 0.00 86 1015.4
20260901090105 78 0 0.0 2.0 0.00 0.00 0.00 86 1015.4
20260901085551 78 0 0.0 0.0 0.00 0.00 0.00 86 1015.6
20260901085054 78 0 0.0 0.0 0.00 0.00 0.00 85 1015.6
20260901084601 78 0 0.0 0.0 0.00 0.00 0.00 85 1015.6
20260901084052 78 0 0.0 0.0 0.00 0.00 0.00 85 1015.6
20260901083552 78 0 0.0 0.0 0.00 0.00 0.00 85 1015.5
20260901083101 78 0 0.0 0.0 0.00 0.00 0.00 85 1015.6
20260901082552 78 0 0.0 0.0 0.00 0.00 0.00 85 1015.7
20260901082051 78 0 0.0 0.0 0.00 0.00 0.00 84 1015.7
20260901081601 78 0 0.0 0.0 0.00 0.00 0.00 84 1015.6
20260901081051 78 0 0.0 0.0 0.00 0.00 0.00 84 1015.7
20260901080554 79 0 0.0 2.0 0.00 0.00 0.00 84 1015.6
20260901080104 79 0 0.0 4.0 0.00 0.00 0.00 84 1015.5
20260901075552 79 0 0.0 4.0 0.00 0.00 0.00 84 1015.5
20260901075052 79 0 1.0 4.0 0.00 0.00 0.00 83 1015.5
20260901074556 79 144 0.0 4.0 0.00 0.00 0.00 83 1015.4
20260901074058 79 144 0.0 4.0 0.00 0.00 0.00 83 1015.4
20260901073551 79 0 0.0 4.0 0.00 0.00 0.00 82 1015.4
20260901073104 79 0 0.0 5.0 0.00 0.00 0.00 82 1015.5
20260901072554 79 142 1.0 5.0 0.00 0.00 0.00 82 1015.5
20260901072056 79 165 2.0 7.0 0.00 0.00 0.00 81 1015.5
20260901071602 79 164 1.0 7.0 0.00 0.00 0.00 81 1015.5
20260901071053 79 188 1.0 7.0 0.00 0.00 0.00 81 1015.4
20260901070553 79 165 1.0 6.0 0.00 0.00 0.00 80 1015.6
20260901070104 79 0 1.0 6.0 0.00 0.00 0.00 79 1015.6
20260901065553 80 163 1.0 6.0 0.00 0.00 0.00 79 1015.4
20260901065054 80 126 1.0 6.0 0.00 0.00 0.00 79 1015.5
20260901064604 80 198 0.0 4.0 0.00 0.00 0.00 78 1015.5
20260901064054 80 0 0.0 4.0 0.00 0.00 0.00 78 1015.3
20260901063556 80 0 0.0 4.0 0.00 0.00 0.00 78 1015.4
20260901063059 80 165 0.0 5.0 0.00 0.00 0.00 77 1015.4
20260901062552 80 0 1.0 6.0 0.00 0.00 0.00 77 1015.3
20260901062054 80 178 2.0 7.0 0.00 0.00 0.00 77 1015.3
20260901061603 80 178 2.0 7.0 0.00 0.00 0.00 76 1015.3
20260901061054 81 142 1.0 5.0 0.00 0.00 0.00 76 1015.3
20260901060556 81 148 1.0 4.0 0.00 0.00 0.00 76 1015.2
20260901060108 81 0 1.0 4.0 0.00 0.00 0.00 75 1015.1
20260901055552 81 132 1.0 4.0 0.00 0.00 0.00 75 1015.2
20260901055054 81 141 0.0 6.0 0.00 0.00 0.00 75 1015.0
20260901054559 81 148 2.0 7.0 0.00 0.00 0.00 75 1015.0
20260901054055 81 167 1.0 7.0 0.00 0.00 0.00 74 1015.0
20260901053600 82 182 2.0 8.0 0.00 0.00 0.00 74 1014.9
20260901053122 82 142 1.0 8.0 0.00 0.00 0.00 73 1015.0
20260901052554 82 105 1.0 5.0 0.00 0.00 0.00 73 1014.9
20260901052055 82 138 1.0 4.0 0.00 0.00 0.00 72 1014.9
20260901051612 82 0 0.0 6.0 0.00 0.00 0.00 72 1015.0
20260901051054 83 121 1.0 6.0 0.00 0.00 0.00 71 1015.1
20260901050554 83 138 0.0 4.0 0.00 0.00 0.00 71 1015.0
20260901045556 83 0 1.0 8.0 0.00 0.00 0.00 71 1014.9
20260901045055 83 0 2.0 8.0 0.00 0.00 0.00 70 1015.0
20260901044607 84 0 1.0 6.0 0.00 0.00 0.00 70 1014.8
20260901044055 84 132 1.0 7.0 0.00 0.00 0.00 69 1014.7
20260901043550 84 0 2.0 9.0 0.00 0.00 0.00 69 1014.6
20260901043100 84 171 2.0 9.0 0.00 0.00 0.00 69 1014.4
20260901042554 84 163 2.0 9.0 0.00 0.00 0.00 69 1014.3
20260901042051 84 186 3.0 11.0 0.00 0.00 0.00 68 1014.5
20260901041559 84 144 3.0 11.0 0.00 0.00 0.00 68 1014.5
20260901041051 85 150 4.0 15.0 0.00 0.00 0.00 68 1014.4
20260901040551 85 148 4.0 15.0 0.00 0.00 0.00 67 1014.5
20260901040113 85 183 4.0 13.0 0.00 0.00 0.00 67 1014.6
20260901035556 85 166 5.0 15.0 0.00 0.00 0.00 66 1014.4
20260901035053 85 162 5.0 17.0 0.00 0.00 0.00 66 1014.5
20260901034610 86 223 4.0 17.0 0.00 0.00 0.00 65 1014.5
20260901034051 86 130 5.0 16.0 0.00 0.00 0.00 65 1014.5
20260901033551 86 140 4.0 16.0 0.00 0.00 0.00 64 1014.4
20260901033100 86 219 2.0 8.0 0.00 0.00 0.00 63 1014.3
20260901032552 86 159 2.0 15.0 0.00 0.00 0.00 62 1014.2
20260901032054 87 167 3.0 16.0 0.00 0.00 0.00 62 1014.2
20260901031557 87 129 4.0 16.0 0.00 0.00 0.00 61 1014.1
20260901031051 87 148 4.0 11.0 0.00 0.00 0.00 61 1013.9
20260901030552 87 194 3.0 9.0 0.00 0.00 0.00 61 1013.8
20260901025551 87 203 3.0 10.0 0.00 0.00 0.00 60 1013.6
20260901025052 88 113 4.0 10.0 0.00 0.00 0.00 59 1013.5
20260901024558 88 151 3.0 11.0 0.00 0.00 0.00 59 1013.4
20260901024053 88 0 2.0 11.0 0.00 0.00 0.00 59 1013.3
20260901023555 88 151 3.0 10.0 0.00 0.00 0.00 59 1013.2
20260901023107 88 126 2.0 12.0 0.00 0.00 0.00 59 1013.3
20260901022551 88 177 3.0 12.0 0.00 0.00 0.00 59 1013.2
20260901022055 88 255 1.0 12.0 0.00 0.00 0.00 59 1013.2
20260901021604 88 174 4.0 12.0 0.00 0.00 0.00 59 1013.1
20260901021052 89 128 3.0 9.0 0.00 0.00 0.00 58 1013.1
20260901020551 89 144 3.0 9.0 0.00 0.00 0.00 58 1013.0
20260901020053 89 134 4.0 10.0 0.00 0.00 0.00 58 1013.0
20260901015551 89 128 3.0 10.0 0.00 0.00 0.00 57 1013.1
20260901015051 89 189 3.0 10.0 0.00 0.00 0.00 57 1012.9
20260901014604 89 130 2.0 8.0 0.00 0.00 0.00 57 1012.9
20260901014052 90 126 3.0 10.0 0.00 0.00 0.00 57 1012.9
20260901013552 90 115 2.0 10.0 0.00 0.00 0.00 57 1012.8
20260901013100 90 112 3.0 13.0 0.00 0.00 0.00 56 1012.7
20260901012554 90 140 3.0 13.0 0.00 0.00 0.00 56 1012.7
20260901012051 91 165 2.0 10.0 0.00 0.00 0.00 55 1012.7
20260901011605 91 146 2.0 14.0 0.00 0.00 0.00 55 1012.6
20260901011052 91 128 4.0 14.0 0.00 0.00 0.00 54 1012.5
20260901010551 92 160 4.0 12.0 0.00 0.00 0.00 53 1012.5
20260901005551 93 136 5.0 12.0 0.00 0.00 0.00 50 1012.4
20260901005050 94 57 5.0 12.0 0.00 0.00 0.00 46 1012.4
20260901004608 95 87 1.0 6.0 0.00 0.00 0.00 45 1012.3
20260901004052 95 103 0.0 3.0 0.00 0.00 0.00 46 1012.2
20260901003552 95 0 0.0 3.0 0.00 0.00 0.00 45 1012.3
20260901003103 96 104 0.0 3.0 0.00 0.00 0.00 45 1012.2
20260901002552 96 0 0.0 6.0 0.00 0.00 0.00 44 1012.1
20260901002052 96 101 0.0 6.0 0.00 0.00 0.00 44 1012.2
20260901001556 96 101 2.0 5.0 0.00 0.00 0.00 44 1012.1
20260901001051 96 125 1.0 4.0 0.00 0.00 0.00 44 1012.2
20260901000551 96 117 1.0 4.0 0.00 0.00 0.00 44 1012.0
20260901000104 97 111 1.0 4.0 0.00 0.00 0.00 44 1012.0
20260831235551 97 98 1.0 4.0 0.00 0.00 0.00 44 1012.0
20260831235053 97 94 0.0 5.0 0.00 0.00 0.00 44 1012.0
20260831234600 97 94 2.0 5.0 0.00 0.00 0.00 44 1012.0
20260831234052 97 101 1.0 7.0 0.00 0.00 0.00 44 1012.0
20260831233552 97 97 1.0 8.0 0.00 0.00 0.00 43 1012.0
20260831233101 97 101 2.0 8.0 0.00 0.00 0.00 42 1012.1
20260831232551 97 150 3.0 9.0 0.00 0.00 0.00 43 1012.0
20260831232051 97 109 4.0 9.0 0.00 0.00 0.00 42 1012.0
20260831231602 97 108 2.0 13.0 0.00 0.00 0.00 43 1012.0
20260831231054 97 82 3.0 13.0 0.00 0.00 0.00 43 1012.1
20260831230552 97 135 2.0 8.0 0.00 0.00 0.00 43 1012.0
20260831230114 97 90 2.0 6.0 0.00 0.00 0.00 43 1012.1
20260831225557 98 163 1.0 9.0 0.00 0.00 0.00 43 1012.1
20260831225051 98 63 2.0 9.0 0.00 0.00 0.00 43 1012.1
20260831224605 98 80 4.0 9.0 0.00 0.00 0.00 42 1012.1
20260831224051 98 91 1.0 9.0 0.00 0.00 0.00 42 1012.1
20260831223553 99 80 3.0 9.0 0.00 0.00 0.00 42 1012.1
20260831223110 99 46 2.0 8.0 0.00 0.00 0.00 42 1012.2
20260831222553 99 89 2.0 10.0 0.00 0.00 0.00 42 1012.3
20260831222052 99 62 3.0 10.0 0.00 0.00 0.00 42 1012.3
20260831221603 99 159 3.0 10.0 0.00 0.00 0.00 42 1012.4
20260831221052 99 99 3.0 11.0 0.00 0.00 0.00 42 1012.3
20260831220552 99 0 3.0 11.0 0.00 0.00 0.00 42 1012.4
20260831220114 99 115 3.0 8.0 0.00 0.00 0.00 42 1012.4
20260831215554 99 104 2.0 8.0 0.00 0.00 0.00 43 1012.6
20260831215051 99 134 3.0 8.0 0.00 0.00 0.00 42 1012.7
20260831214600 99 0 2.0 6.0 0.00 0.00 0.00 43 1012.8
20260831214051 99 152 2.0 9.0 0.00 0.00 0.00 42 1012.8
20260831213551 99 192 3.0 9.0 0.00 0.00 0.00 42 1012.9
20260831213128 99 184 3.0 13.0 0.00 0.00 0.00 43 1013.0
20260831212551 99 115 3.0 13.0 0.00 0.00 0.00 43 1012.9
20260831212054 98 101 4.0 13.0 0.00 0.00 0.00 44 1013.0
20260831211611 98 148 1.0 7.0 0.00 0.00 0.00 46 1013.1
20260831211051 97 0 2.0 7.0 0.00 0.00 0.00 45 1013.2
20260831210551 97 124 1.0 6.0 0.00 0.00 0.00 46 1013.2
20260831205552 98 163 2.0 10.0 0.00 0.00 0.00 45 1013.3
20260831205051 99 151 1.0 10.0 0.00 0.00 0.00 44 1013.4
20260831204605 99 0 3.0 9.0 0.00 0.00 0.00 44 1013.4
20260831204051 98 113 3.0 8.0 0.00 0.00 0.00 45 1013.6
20260831203553 98 200 2.0 10.0 0.00 0.00 0.00 45 1013.6
20260831203115 98 142 3.0 10.0 0.00 0.00 0.00 46 1013.8
20260831202558 97 130 2.0 8.0 0.00 0.00 0.00 46 1013.9
20260831202052 96 156 1.0 8.0 0.00 0.00 0.00 48 1014.0
20260831201559 96 117 2.0 10.0 0.00 0.00 0.00 48 1014.1
20260831201051 97 119 2.0 10.0 0.00 0.00 0.00 48 1014.2
20260831200551 98 93 3.0 7.0 0.00 0.00 0.00 46 1014.3
20260831200101 98 100 1.0 12.0 0.00 0.00 0.00 46 1014.3
20260831195551 98 123 2.0 12.0 0.00 0.00 0.00 45 1014.3
20260831195051 98 105 4.0 12.0 0.00 0.00 0.00 46 1014.5
20260831194605 97 159 3.0 8.0 0.00 0.00 0.00 47 1014.5
20260831194051 98 120 4.0 8.0 0.00 0.00 0.00 46 1014.6
20260831193553 98 111 2.0 9.0 0.00 0.00 0.00 48 1014.7
20260831193058 97 153 1.0 9.0 0.00 0.00 0.00 46 1014.7
20260831192552 97 65 2.0 7.0 0.00 0.00 0.00 46 1014.8
20260831192051 97 101 2.0 7.0 0.00 0.00 0.00 48 1014.9
20260831191605 97 104 1.0 9.0 0.00 0.00 0.00 48 1015.0
20260831191055 97 172 3.0 10.0 0.00 0.00 0.00 48 1015.1
20260831190553 96 221 3.0 10.0 0.00 0.00 0.00 50 1015.1